Regional Weather Roundup
Issued by NWS

Home | Current Version | Previous Version | Text Only | Print | Product List | Glossary On
Versions: 1 2 3 4 5 6 7 8 9 10 11 12 13 14 15 16 17 18 19 20 21 22 23 24 25 26 27 28 29 30 31 32 33 34 35 36 37 38 39 40 41 42 43 44 45 46 47 48 49 50
000
ASUS43 KMKX 302124
RWRWI

WISCONSIN REGIONAL WEATHER ROUNDUP
NATIONAL WEATHER SERVICE MILWAUKEE/SULLIVAN WI
400 PM CDT SAT MAY 30 2015

NOTE: "FAIR" INDICATES FEW OR NO CLOUDS BELOW 12,000 FEET WITH NO
SIGNIFICANT WEATHER AND/OR OBSTRUCTIONS TO VISIBILITY.

WIZ001-002-006>008-014>016-023>028-302200-
NORTHWEST WISCONSIN

CITY           SKY/WX    TMP DP  RH WIND       PRES   REMARKS
SUPERIOR ARPT  SUNNY     53  35  50 NE9       30.31R
ASHLAND        SUNNY     53  33  46 NE12      30.33R
HAYWARD        SUNNY     56  35  45 NE12      30.27S
SIREN          MOSUNNY   60  35  39 E9        30.26S
CUMBERLAND     PTSUNNY   55  39  54 NE12      30.25S
RICE LAKE      SUNNY     58  38  46 NE13G18   30.26S
CHETEK         PTSUNNY   58  41  52 NE8       30.24S
LADYSMITH      MOSUNNY   58  40  52 N8        30.26F
EAU CLAIRE     PTSUNNY   60  42  51 N14G20    30.22R
MENOMONIE      PTSUNNY   60  42  52 NE10G17   30.24S
NEW RICHMOND   MOSUNNY   60  41  49 NE10      30.24S
OSCEOLA        PTSUNNY   62  43  50 NE8G16    30.28R
$$

WIZ003>005-009-010-017-018-302200-
NORTH CENTRAL WISCONSIN

CITY           SKY/WX    TMP DP  RH WIND       PRES   REMARKS
MANITOWISH WTR SUNNY     51  33  49 N9        30.27R
ARBOR VITAE    SUNNY     55  36  49 NE9G24    30.26R
WOODRUFF       SUNNY     55  36  49 NE9G24    30.26R
RHINELANDER    MOSUNNY   54  38  54 VRB7G21   30.24S
EAGLE RIVER    MOSUNNY   54  28  37 N12G22    30.25R
LAND O LAKES   MOSUNNY   52  29  40 N12G18    30.26S
PHILLIPS       MOSUNNY   53  38  55 N14       30.25S
TOMAHAWK       MOSUNNY   55  38  51 N7G18     30.25R
MEDFORD        PTSUNNY   57  43  59 N12       30.21F
MERRILL        MOSUNNY   58  42  54 N10       30.23R
$$

WIZ029-030-035-036-043>047-302200-
CENTRAL WISCONSIN

CITY           SKY/WX    TMP DP  RH WIND       PRES   REMARKS
WAUSAU         CLOUDY    59  42  53 N10G17    30.19R
MOSINEE        CLOUDY    57  45  62 NE9       30.20S
MARSHFIELD     CLOUDY    61  43  51 NE14      30.19S
STEVENS POINT  CLOUDY    57  42  55 NE16G22   30.20S
WAUPACA        CLOUDY    58  46  64 NE7       30.19S
WAUTOMA        CLOUDY    55  51  86 NE5       30.19S
WISC RAPIDS    CLOUDY    62  43  49 NE9       30.19F
CAMP DOUGLAS   CLOUDY    59  57  94 NE8       30.17S
$$

WIZ011>013-019>022-031-037>040-048>050-302200-
NORTHEAST WISCONSIN

CITY           SKY/WX    TMP DP  RH WIND       PRES   REMARKS
ANTIGO         PTSUNNY   54  42  63 N15G22    30.22R
SHAWANO        CLOUDY    59  43  55 NE10G20   30.21R
OCONTO         CLOUDY    54  42  64 N12G21    30.20S
STURGEON BAY   CLOUDY    48  39  71 NE15G21   30.24R
GREEN BAY      CLOUDY    54  45  71 NE17G25   30.20R
MANITOWOC      LGT RAIN  50  45  83 NE6       30.19R
APPLETON       CLOUDY    54  45  71 NE10      30.19R
CLINTONVILLE   CLOUDY    57  43  58 NE14      30.19F
OSHKOSH        CLOUDY    55  46  71 NE13      30.17S
$$

WIZ032>034-041-042-053>061-302200-
SOUTHWEST WISCONSIN

CITY           SKY/WX    TMP DP  RH WIND       PRES   REMARKS
LA CROSSE      CLOUDY    63  51  65 N12G18    30.17S
SPARTA         CLOUDY    57  51  78 E10       30.18S
VIROQUA        CLOUDY    56  55  97 NE18      30.17S
BOSCOBEL       CLOUDY    58  50  75 E13G20    30.15R
PRAIRIE DU CHI CLOUDY    59  49  71 NE13G18   30.14S
PLATTEVILLE    CLOUDY    55  52  89 NE17G23   30.12S
$$

WIZ056-057-062-063-064-067-068-302200-
SOUTH CENTRAL WISCONSIN

CITY           SKY/WX    TMP DP  RH WIND       PRES   REMARKS
REEDSBURG      CLOUDY    55  47  74 NE12G18   30.17S
BARABOO/DELLS  CLOUDY    54  46  74 E13       30.17S
LONE ROCK      CLOUDY    57  48  72 NE20      30.16S
MINERAL POINT  CLOUDY    55  50  82 NE12G23   30.13S
MADISON        CLOUDY    53  47  79 NE20      30.15R
MIDDLETON      CLOUDY    54  48  81 NE20G30   30.16S
WATERTOWN      CLOUDY   N/A N/A N/A NE12G21   30.15R
MONROE         CLOUDY    52  48  87 NE24G37   30.11R
JANESVILLE     DRIZZLE   52  48  87 NE14G22   30.12R
$$

WIZ051-052-058>065-066-070>072-302200-
SOUTHEAST WISCONSIN

CITY           SKY/WX    TMP DP  RH WIND       PRES   REMARKS
MILWAUKEE      LGT RAIN  46  43  89 N21G33    30.13R
WAUKESHA       CLOUDY    46  45  93 NE12G23   30.14S
MILWAUKEE/TIMM LGT RAIN  46  43  87 NE22G35   30.14S
RACINE         LGT RAIN  46  43  89 N25G37    30.13R
BURLINGTON     DRIZZLE   47  45  93 NE16G23   30.13R
KENOSHA        LGT RAIN  48  45  89 N21G31    30.11R
FOND DU LAC    LGT RAIN  52  46  80 NE18G29   30.18R
SHEBOYGAN      CLOUDY    50  46  86 NE13      30.17R
WEST BEND      DRIZZLE   48  43  81 NE14G22   30.15F
JUNEAU         CLOUDY    50  46  87 N15G21    30.17S
$$

LSZ147-162-302200-
LAKE SUPERIOR

STATION/POSITION TIME  TEMP    WIND        PRES    WAVE
                       AIR SEA DIR/SP/G            HT/PER
                 (UTC) (F)     (DEG/KT/KT) (MB)    (FT/S)
W MID LAKE BUOY  2050   38 38  140/  6/  8   N/A     1/ 4
DEVILS ISLAND    2100   44     120/ 11/ 14   N/A
PORT WING        2040   48      30/ 13/ 14   N/A
SAXON HARBOR     2000   46      40/  9/ 12   N/A
$$

LMZ867-665-643>646-302200-
LAKE MICHIGAN

STATION/POSITION TIME  TEMP    WIND        PRES    WAVE
                       AIR SEA DIR/SP/G            HT/PER
                 (UTC) (F)     (DEG/KT/KT) (MB)    (FT/S)
CHAMBERS ISLAND  2000   49     360/ 20/ 23   N/A
N MID LAKE BUOY  2050   42 37  320/ 16/ 19   N/A     2/ 3
NORTHPORT PIER   2019   48     340/ 20/ 26   N/A
SISTER BAY       2003   50     360/ 22/ 33   N/A
ALGOMA LAKESHORE 2038           30/ 12/ 18   N/A
KEWAUNEE LAKESHO 2100   50      30/ 12/ 15   N/A
SHEBOYGAN LAKESH 2100   46      20/ 19/ 22   N/A
PORT WASHINGTON  2014   48      20/ 13/ 25   N/A
ATWATER BUOY     2100   46      20/ 21/ 25   N/A
MILWAUKEE LAKESH 2100   45      10/ 23/ 27   N/A
S MID LAKE BUOY  2050   41 38  360/ 21/ 27   N/A     7/ 7
KENOSHA   LAKESH 2100   46      10/ 33/ 39   N/A
$$

TC  - TEMPERATURE IN CELSIUS
VSB - VISIBILITY IN STATUTE MILES
WCI - WIND CHILL INDEX
HX  - HEAT INDEX




USA.gov is the U.S. government's official web portal to all federal, state and local government web resources and services.